12861/ 12862 Dakshin Link SF Express

12861/ 12862 Dakshin Link SF Express

The Dakshin Link SF Express (12861/12862) is one of India’s important long-distance trains. It connecting Howrah Junction (HWH) in West Bengal with Hazrat Nizamuddin (NZM) in Delhi. Managed by the South Eastern Railway zone. This train plays a crucial role in linking the eastern and northern regions of India. Offering a comfortable and efficient travel option for passengers.

The 12861 Dakshin Link SF Express departs from Howrah Junction. While the 12862 Dakshin Link SF Express runs in the opposite direction from Hazrat Nizamuddin. Covering a distance of around 1,445 km. The train takes approximately 25 to 26 hours to complete its journey. It halts at major stations like Dhanbad, Gaya, Pt. Deen Dayal Upadhyaya Junction, Prayagraj, Kanpur Central, and Agra Cantt, ensuring convenient travel between key cities.

The train offers multiple classes, including AC 2-tier, AC 3-tier, Sleeper Class, and General Unreserved, catering to passengers with varying travel preferences. Onboard facilities include comfortable seating, clean coaches, and charging ports, ensuring a smooth travel experience.

If you’re traveling on the Dakshin Link SF Express. You can make your journey even more delightful with TravelKhana’s food delivery in train service. Get fresh, hygienic meals from top brands like Haldiram’s, Bikanervala, Behrouz Biryani, McDonald’s, and more — delivered right to your seat. Simply visit www.travelkhana.com or download the TravelKhana App to order your favorite meal and enjoy restaurant-style food during your train journey.

Highlights of Dakshin Link SF Express
Train detailsFacilities Onboard
Travel Time:37h 0m
Halts:56
Distance:2097 km
Avg Speed:57 km/hr
Cleanliness:Average
Punctuality:Excellent
E-CateringYes
Ticket availability:Average
Mobile/Laptop ChargerYes

12861/ Dakshin Link SF Express VSKP/ Visakhapatnam Junction – NZM/Hazrat Nizamuddin Route, Schedule & Time Table–

CodeStation NameArrivesDepartsHalt
VSKPVisakhapatnam Junction15:05:00
DVDDuvvada15:34:0015:35:001m
AKPAnakapalle15:54:0015:55:001m
TUNITuni16:37:0016:39:002m
ANVAnnavaram16:53:0016:54:001m
SLOSamalkot Junction17:21:0017:22:001m
RJYRajahmundry18:16:0018:18:002m
NDDNidadavolu Junction18:41:0018:42:001m
TDDTadepalligudem18:59:0019:00:001m
EEEluru19:33:0019:34:001m
BZAVijayawada Junction21:15:0021:30:0015m
MDRMadhira22:21:0022:22:001m
KMTKhammam22:53:0022:55:002m
DKJDornakal Junction23:14:0023:15:001m
MABDMahbubabad23:37:0023:38:001m
KDMKesamudram23:44:0023:45:001m
WLWarangal00:24:0000:26:002m
KZJKazipet Junction01:10:0001:30:0020m
JMKTJammikunta01:54:0001:55:001m
PDPLPeddapalli Junction02:21:0002:22:001m
RDMRamagundam02:44:0002:45:001m
MCIManchiryal02:59:0003:00:001m
BPABellampalli03:18:0003:20:002m
SKZRSirpur Kaghaznagar03:58:0004:00:002m
BPQBalharshah Junction05:20:0005:30:0010m
CDChandrapur05:49:0005:50:001m
BUXBhandak06:13:0006:14:001m
WRRWarora06:35:0006:36:001m
HGTHinganghat07:06:0007:07:001m
SEGMSewagram Junction07:52:0007:53:001m
SNISindi08:16:0008:17:001m
AJNIAjni08:51:0008:52:001m
NGPNagpur Junction09:05:0009:15:0010m
KATLKatol10:17:0010:18:001m
NRKRNarkher Junction10:43:0010:44:001m
PARPandhurna11:02:0011:03:001m
MTYMultai11:43:0011:45:002m
AMLAAmla Junction12:06:0012:08:002m
BZUBetul12:27:0012:29:002m
GDYAGhoradongri13:10:0013:12:002m
ETItarsi Junction14:45:0014:55:0010m
HBDHoshangabad15:13:0015:15:002m
HBJHabibGanj16:18:0016:20:002m
BPLBhopal Junction16:45:0016:50:005m
BHSVidisha17:22:0017:24:002m
BAQGanj Basoda17:53:0017:55:002m
MABAMandi Bamora18:17:0018:19:002m
BINABina Junction19:00:0019:05:005m
LARLalitpur Junction19:50:0019:52:002m
BABBabina20:35:0020:37:002m
JHSJhansi Junction21:20:0021:30:0010m
GWLGwalior Junction22:44:0022:46:002m
MRAMorena23:16:0023:18:002m
AGCAgra Cantt.00:45:0000:50:005m
MTJMathura Junction01:34:0001:39:005m
BVHBallabh Garh03:18:0003:20:002m
FDBFaridabad03:31:0003:33:002m
NZMHazrat Nizamuddin04:05:00

12862/ Dakshin Link SF Express (UnReserved) KZJ/Kazipet Junction – VSKP/Visakhapatnam Junction Route, Schedule & Time Table–

CodeStation NameArrivesDepartsHalt
KZJKazipet Junction02:40:00
WLWarangal02:53:0002:54:001m
NKDNekonda03:18:0003:19:001m
KDMKesamudram03:29:0003:30:001m
MABDMahbubabad03:39:0003:40:001m
DKJDornakal Junction04:04:0004:05:001m
KMTKhammam04:23:0004:24:001m
MDRMadhira04:54:0004:55:001m
BZAVijayawada Junction06:45:0007:05:0020m
EEEluru07:50:0007:52:002m
TDDTadepalligudem08:23:0008:25:002m
NDDNidadavolu Junction08:41:0008:43:002m
RJYRajahmundry09:32:0009:34:002m
SLOSamalkot Junction10:16:0010:18:002m
ANVAnnavaram10:43:0010:45:002m
TUNITuni10:58:0011:00:002m
AKPAnakapalle12:08:0012:10:002m
DVDDuvvada12:45:0012:46:001m
VSKPVisakhapatnam Junction13:30:00

Leave a Reply

Your email address will not be published. Required fields are marked *